Wind_Speed
21 20 19 18 18 17 18 21 21 19 18 15 13 12 12 11 10 9 7 6 6 7 8 8 9 9 8 8 8 8 9 8 8 7 7 6 5 4 2 1 1 1 2 3 3 3 3 3 3
22 21 20 20 18 17 20 23 22 22 19 16 14 13 13 12 12 11 9 7 7 7 7 8 9 9 9 9 9 9 9 10 9 9 8 7 6 5 3 2 2 1 0 1 1 2 2 2 2
23 22 21 20 19 19 23 25 24 22 19 17 16 15 14 14 14 12 10 8 8 7 7 8 9 10 10 10 10 10 10 11 11 10 10 9 8 7 5 4 3 3 2 2 1 1 1 1 1
23 23 22 21 21 23 26 25 25 23 20 19 17 16 16 15 14 13 11 9 8 8 9 9 10 10 11 11 11 11 11 11 11 11 11 10 10 8 7 6 5 5 5 4 4 3 3 2 2
23 22 22 21 22 24 26 26 25 24 22 20 18 17 17 16 15 13 11 9 8 9 9 10 10 11 11 11 11 12 12 13 13 13 13 12 11 10 10 9 8 7 7 7 6 6 5 4 3
22 21 21 21 23 25 26 27 26 24 23 21 19 19 18 17 15 14 13 11 10 10 10 10 10 11 12 12 12 13 13 13 14 14 14 14 13 13 12 12 10 10 9 9 9 8 7 6 5
21 21 21 21 23 25 27 27 27 26 24 23 21 20 19 18 16 14 13 12 11 11 11 11 11 12 12 13 13 14 14 14 15 15 16 16 16 15 15 14 13 12 11 11 10 10 9 8 7
20 20 20 22 23 26 27 27 27 26 26 23 22 22 20 19 18 16 14 13 12 12 12 12 12 12 13 14 15 15 15 16 16 16 17 17 18 17 17 16 15 14 14 13 12 12 11 10 9
19 19 20 22 24 26 26 27 27 27 25 24 23 22 21 20 19 17 15 15 13 12 12 13 13 14 14 15 16 16 16 16 17 17 18 19 19 19 18 17 16 15 15 14 14 14 13 12 11
18 19 21 22 24 26 26 27 27 26 26 25 24 24 22 21 20 18 17 17 15 13 13 13 14 15 16 16 17 17 17 17 18 18 18 19 20 20 19 18 18 17 16 16 15 15 15 15 13
18 19 21 22 24 25 26 27 27 26 26 26 25 23 22 21 21 20 19 18 17 16 15 15 15 16 17 18 19 19 19 20 20 20 20 20 21 21 20 20 19 19 18 17 17 17 17 17 16
18 19 20 21 23 24 26 26 27 27 27 26 24 22 22 22 23 22 21 20 19 18 17 18 18 18 19 19 20 21 20 21 21 21 21 21 22 23 22 21 21 20 20 19 19 18 18 18 19
17 18 18 20 21 23 25 26 27 27 26 25 24 23 23 24 23 23 24 22 21 20 20 20 20 21 21 21 22 22 22 22 22 23 23 23 24 24 23 24 23 22 22 22 21 20 20 19 20
16 17 18 19 20 22 24 25 26 27 26 25 24 24 24 24 25 25 24 23 23 22 22 22 23 23 22 23 23 24 24 23 23 24 24 25 25 26 25 24 24 24 24 24 24 23 22 22 21
16 16 17 19 19 21 22 24 26 26 25 24 24 24 24 24 25 25 25 25 25 25 25 24 24 25 25 25 25 25 25 26 25 26 26 26 26 27 28 27 26 27 26 25 25 25 24 24 23
16 16 17 19 19 20 19 22 24 25 24 24 24 24 25 25 25 25 26 26 26 26 26 26 26 26 27 27 27 26 27 28 28 28 28 27 27 27 28 29 29 29 29 27 26 27 26 25 25
15 15 16 18 19 19 19 22 22 23 23 24 24 25 26 26 26 26 26 27 27 27 27 27 27 28 28 28 28 28 29 29 31 31 31 30 29 29 28 29 29 30 30 30 28 28 28 27 27
15 15 16 17 18 18 19 21 21 22 22 23 24 24 25 25 25 26 26 27 27 27 28 28 28 29 28 28 28 28 29 29 31 32 32 32 31 30 30 30 29 29 30 30 29 29 29 28 28
15 15 15 17 16 16 17 18 19 20 20 21 22 23 23 24 25 25 25 26 26 27 27 28 28 28 28 28 28 28 28 30 31 32 32 33 32 33 32 32 31 31 30 29 29 28 29 29 28
14 14 14 15 15 15 16 17 17 19 20 20 21 22 22 23 23 24 25 25 26 26 27 28 28 28 27 27 28 29 29 30 31 32 32 32 33 33 33 33 32 32 32 31 30 29 29 29 28
13 13 14 14 14 14 14 15 17 18 19 20 21 21 21 22 22 23 25 26 27 27 27 28 28 29 28 27 28 28 29 30 30 31 32 32 33 33 32 32 32 32 31 31 30 29 30 31 30
12 13 13 13 11 12 12 11 16 17 18 19 20 21 21 22 23 24 24 25 26 27 27 27 27 27 27 27 28 28 29 30 30 31 32 32 33 33 33 33 32 32 31 31 31 30 30 31 31
13 13 12 12 12 12 13 11 13 16 17 18 19 19 20 21 22 22 23 24 25 26 27 27 28 28 28 28 29 29 29 30 31 31 32 33 33 33 33 33 34 33 32 31 32 32 31 30 31
12 11 11 11 11 11 13 12 12 15 16 17 17 18 19 20 21 22 22 23 24 25 26 27 28 28 29 30 30 30 30 30 30 31 31 31 32 32 33 32 32 32 30 29 30 30 30 31 30
11 9 8 9 10 11 13 12 13 15 15 16 17 18 19 20 21 22 23 23 24 25 26 26 27 28 29 30 30 31 32 32 31 31 31 30 30 30 30 31 31 31 31 31 30 29 29 30 30
10 10 9 10 10 11 14 13 14 14 15 16 17 18 19 20 21 22 22 23 24 25 25 25 26 27 28 29 30 31 31 31 31 31 30 30 30 30 29 29 29 29 30 30 30 30 30 30 30
10 10 11 10 10 11 13 14 15 15 15 16 17 18 19 20 22 22 22 23 23 24 25 26 27 28 29 29 29 30 30 30 31 30 30 30 29 29 30 29 28 28 27 28 29 29 28 28 30
11 11 11 10 10 10 11 13 14 15 16 17 18 20 21 21 22 23 23 24 25 25 26 27 27 27 28 28 29 29 29 29 29 28 29 29 29 29 28 28 28 28 28 26 27 28 28 28 29
11 12 11 11 12 11 11 13 16 17 18 18 20 21 22 22 23 23 24 25 26 26 26 26 26 26 25 25 26 27 28 27 27 26 27 28 27 27 27 27 28 27 26 26 26 26 27 29 29
12 12 12 12 13 13 13 16 17 18 19 20 21 22 23 23 24 25 25 26 25 25 25 25 25 25 25 24 25 25 26 26 25 25 25 26 26 25 25 26 26 26 25 25 25 26 25 26 27
Wind_Direction
256 254 251 248 246 244 241 244 244 243 240 235 224 216 212 215 216 216 215 213 210 203 203 200 195 196 202 211 219 224 224 224 220 218 212 207 206 204 199 180 130 77 63 53 45 37 35 36 34
255 253 250 247 243 240 241 243 243 244 243 236 227 222 220 225 226 221 218 218 218 220 217 212 205 201 205 214 223 228 230 231 228 226 222 222 225 225 225 220 233 257 8 31 30 23 19 16 18
254 251 250 246 241 232 237 243 243 245 241 236 231 227 225 229 227 227 225 222 225 230 227 220 213 210 212 217 223 227 234 237 234 231 230 231 233 235 235 237 245 254 260 261 274 301 320 317 327
252 250 248 245 239 235 239 242 242 243 240 236 232 229 230 229 228 230 226 227 235 239 237 229 224 219 218 221 226 231 237 240 239 236 236 236 236 238 239 243 247 251 252 252 255 264 277 281 284
251 249 247 243 238 237 238 240 241 240 238 234 231 228 229 229 233 235 232 235 243 246 241 237 234 228 226 228 230 234 238 240 241 241 241 241 241 240 239 244 246 250 252 251 253 254 257 266 266
249 247 244 240 237 236 237 237 237 237 235 233 232 232 233 237 238 238 239 244 247 249 246 239 237 235 234 236 237 239 239 240 241 242 243 244 243 242 241 244 246 249 251 251 251 249 250 255 256
247 243 239 236 235 235 235 236 235 235 234 234 233 234 237 239 242 244 246 250 250 249 249 245 242 243 242 242 242 242 242 242 242 243 244 245 245 245 245 245 245 247 248 249 250 247 248 252 253
244 241 237 234 232 234 235 236 236 235 235 236 233 233 238 241 247 249 251 254 254 250 251 252 250 248 247 248 247 245 245 246 246 245 245 245 246 245 246 247 246 247 248 249 248 246 247 248 250
242 238 234 231 229 233 234 234 236 237 237 237 236 237 240 243 248 250 254 258 257 258 258 259 255 252 251 252 251 249 249 250 249 249 249 248 248 246 247 249 248 248 250 249 248 247 246 245 246
240 234 233 232 231 233 233 233 235 236 236 237 237 239 241 246 250 253 259 263 262 262 262 262 261 258 256 257 256 255 253 252 252 250 250 251 250 249 249 250 250 249 250 250 250 249 248 247 246
240 235 235 232 232 232 233 233 234 234 235 237 238 239 241 247 252 256 260 264 269 272 270 268 266 263 262 260 258 258 256 254 255 253 252 252 251 251 251 250 250 250 249 249 252 252 251 250 249
239 236 234 232 231 231 231 232 233 234 236 238 241 241 243 248 254 258 261 269 274 273 271 269 267 266 264 262 261 259 257 256 255 253 253 254 253 252 251 250 251 251 251 251 252 252 252 253 251
236 234 232 231 230 230 231 231 233 236 237 240 243 244 247 251 256 262 266 270 272 272 272 271 270 267 264 262 261 261 258 256 256 256 255 255 255 254 254 254 253 252 252 252 251 252 253 253 252
232 231 230 230 230 230 230 232 234 237 240 241 244 246 249 254 260 264 266 268 270 272 273 274 273 268 264 262 261 262 263 260 257 256 255 255 255 253 254 256 256 255 254 252 251 250 252 251 252
227 227 228 229 229 230 232 233 235 238 242 244 247 249 251 256 261 266 268 269 270 272 273 272 272 270 266 264 262 262 262 261 258 257 256 256 257 256 256 256 256 256 255 252 250 248 250 251 250
224 224 227 231 231 231 230 234 236 239 242 245 248 251 255 260 263 265 267 269 270 273 274 273 272 271 268 266 264 263 260 259 259 258 259 258 258 259 256 257 257 257 253 252 251 249 249 250 249
220 218 224 233 232 232 229 235 239 241 243 247 251 254 258 262 264 266 268 269 271 272 273 272 271 271 270 267 266 265 261 261 260 259 259 258 259 259 256 257 257 258 256 254 252 250 250 251 250
216 218 224 232 234 233 234 240 242 244 247 250 254 257 260 263 264 265 267 269 270 271 270 270 270 270 269 267 266 265 261 260 260 260 259 258 258 258 257 257 257 259 258 255 254 254 251 251 250
216 219 226 233 235 236 238 242 245 248 251 253 256 259 262 264 265 265 266 267 267 268 268 269 269 268 267 266 263 263 263 262 262 261 261 257 257 258 259 258 257 259 257 254 254 254 251 251 250
217 221 230 237 238 239 244 248 251 253 255 257 259 262 264 267 267 267 266 266 266 266 267 269 269 268 267 265 265 263 263 263 262 262 261 259 258 259 259 258 257 259 257 254 254 252 249 248 252
218 219 229 239 246 247 250 256 257 255 256 258 260 262 264 266 267 269 268 266 266 266 266 266 267 267 266 266 266 263 263 262 263 261 260 260 259 259 258 257 258 259 260 255 253 250 249 249 249
220 225 233 242 245 252 253 252 263 259 258 259 262 264 265 267 270 272 271 267 265 265 266 267 266 265 265 266 266 262 263 262 262 261 259 259 258 258 257 257 257 258 257 252 250 250 251 248 248
221 228 235 243 245 249 260 251 261 262 261 262 265 268 269 271 273 274 273 270 267 266 266 267 267 265 265 266 265 263 263 263 262 262 261 259 257 257 256 257 256 256 254 250 248 247 247 246 247
227 233 241 249 252 256 256 256 260 264 264 266 268 270 272 275 276 277 276 273 270 269 269 269 269 268 266 265 265 264 264 264 262 262 262 261 258 257 257 257 256 252 249 248 247 246 246 243 244
230 231 244 255 256 256 260 261 257 264 266 269 272 273 274 277 280 280 278 276 273 271 271 271 271 269 267 266 266 264 264 264 262 262 261 259 256 256 255 254 253 251 249 246 245 246 243 242 243
231 225 226 237 249 256 272 268 266 268 269 272 274 276 278 280 281 281 279 277 275 274 273 273 273 271 269 268 266 264 265 264 262 261 258 257 256 254 253 252 251 249 248 246 247 246 244 242 242
234 230 234 246 257 260 265 272 273 271 273 275 278 280 282 282 282 283 282 280 279 278 276 274 273 273 271 269 267 265 264 263 262 259 256 254 253 252 251 249 247 246 246 246 245 244 243 242 242
237 242 250 253 259 265 272 278 276 276 276 280 282 283 285 285 284 283 283 282 283 282 279 278 275 275 274 270 267 266 266 264 260 259 255 253 251 251 248 246 245 245 244 242 243 244 242 239 240
244 248 252 255 256 262 269 273 276 280 280 282 283 285 287 287 286 285 284 284 284 283 281 278 277 277 275 271 268 264 263 262 259 257 255 253 251 250 248 246 245 245 242 242 242 242 240 238 239
246 251 257 263 269 273 276 280 280 283 283 285 287 288 290 290 289 288 287 287 286 284 282 279 279 278 276 272 270 265 262 260 259 257 254 250 248 247 246 246 245 244 245 243 243 242 242 240 239
Height
5882 5883 5885 5886 5889 5890 5889 5888 5889 5891 5893 5896 5898 5899 5900 5901 5903 5905 5903 5902 5902 5903 5903 5904 5905 5905 5906 5907 5908 5908 5909 5910 5910 5910 5910 5910 5910 5911 5911 5911 5911 5911 5911 5911 5911 5911 5911 5911 5911
5878 5879 5882 5883 5885 5887 5886 5885 5886 5888 5890 5893 5895 5897 5898 5898 5899 5900 5900 5900 5901 5901 5901 5902 5903 5904 5904 5905 5906 5907 5908 5908 5909 5909 5909 5909 5910 5910 5910 5910 5911 5911 5911 5911 5911 5911 5911 5911 5910
5873 5875 5878 5880 5881 5883 5881 5881 5883 5885 5888 5890 5892 5894 5896 5896 5897 5897 5898 5898 5899 5899 5900 5900 5901 5902 5903 5904 5905 5906 5906 5907 5907 5908 5908 5908 5909 5909 5909 5910 5910 5910 5910 5910 5910 5910 5910 5910 5910
5869 5871 5874 5876 5877 5876 5876 5878 5879 5882 5885 5888 5890 5892 5893 5894 5894 5895 5896 5896 5897 5897 5897 5898 5899 5900 5901 5902 5903 5904 5905 5905 5906 5906 5906 5907 5907 5908 5908 5909 5909 5909 5909 5909 5909 5909 5909 5909 5909
5864 5867 5869 5871 5871 5871 5872 5874 5876 5879 5882 5885 5887 5889 5890 5891 5892 5893 5893 5894 5895 5895 5895 5896 5897 5898 5899 5900 5900 5901 5902 5903 5904 5904 5905 5905 5906 5906 5907 5907 5907 5908 5908 5908 5908 5908 5908 5908 5908
5860 5863 5865 5866 5867 5867 5868 5870 5873 5876 5879 5882 5884 5886 5887 5889 5889 5890 5891 5892 5893 5893 5893 5893 5894 5895 5896 5897 5898 5899 5900 5900 5901 5902 5902 5903 5903 5904 5905 5905 5906 5906 5906 5906 5906 5906 5906 5906 5906
5857 5858 5860 5862 5862 5863 5865 5867 5870 5873 5876 5879 5882 5883 5884 5886 5887 5888 5889 5890 5890 5890 5891 5891 5892 5892 5893 5894 5895 5896 5897 5897 5898 5899 5899 5900 5901 5902 5902 5903 5903 5904 5904 5904 5904 5904 5905 5905 5905
5851 5854 5855 5857 5858 5859 5861 5864 5867 5870 5872 5876 5879 5881 5882 5883 5884 5886 5886 5887 5887 5888 5888 5889 5889 5890 5890 5891 5892 5893 5894 5894 5895 5896 5896 5897 5898 5898 5899 5900 5900 5901 5901 5901 5902 5902 5902 5903 5903
5847 5851 5851 5853 5855 5855 5858 5861 5863 5866 5870 5873 5875 5877 5879 5880 5882 5883 5883 5884 5885 5885 5886 5886 5886 5887 5887 5888 5889 5889 5890 5891 5891 5892 5892 5893 5894 5895 5896 5897 5897 5898 5899 5899 5899 5900 5900 5900 5900
5843 5846 5847 5849 5850 5852 5854 5857 5860 5864 5866 5869 5872 5874 5875 5877 5879 5880 5880 5881 5882 5882 5883 5883 5883 5884 5884 5885 5885 5886 5886 5887 5888 5888 5889 5889 5890 5891 5892 5893 5894 5895 5895 5896 5896 5896 5897 5897 5897
5839 5841 5842 5844 5846 5848 5851 5853 5857 5860 5863 5865 5868 5870 5872 5874 5875 5876 5877 5877 5878 5879 5879 5880 5880 5880 5881 5881 5881 5882 5882 5883 5883 5884 5884 5885 5886 5886 5887 5888 5889 5890 5891 5892 5893 5893 5893 5894 5895
5835 5837 5839 5841 5843 5845 5847 5850 5853 5856 5859 5861 5864 5866 5869 5870 5871 5872 5872 5873 5874 5875 5875 5876 5876 5876 5877 5877 5877 5878 5878 5878 5879 5879 5880 5880 5881 5881 5883 5884 5885 5886 5887 5888 5889 5889 5890 5890 5891
5831 5833 5835 5838 5840 5842 5844 5847 5849 5852 5855 5858 5860 5863 5865 5866 5867 5868 5869 5869 5870 5870 5871 5871 5872 5872 5872 5872 5872 5873 5873 5873 5873 5874 5875 5876 5876 5877 5878 5879 5880 5881 5882 5883 5884 5885 5886 5887 5887
5829 5830 5832 5834 5837 5839 5841 5844 5847 5849 5851 5854 5857 5859 5861 5862 5863 5864 5864 5865 5865 5866 5866 5866 5866 5866 5866 5867 5867 5867 5868 5868 5868 5868 5869 5870 5871 5872 5873 5874 5875 5876 5877 5878 5879 5880 5881 5882 5883
5825 5828 5830 5832 5834 5836 5839 5841 5843 5845 5848 5851 5853 5855 5856 5857 5858 5859 5860 5860 5860 5860 5861 5861 5861 5861 5861 5861 5861 5861 5862 5862 5863 5863 5863 5864 5865 5867 5868 5869 5870 5871 5872 5873 5874 5875 5876 5877 5878
5823 5826 5828 5829 5831 5834 5839 5839 5840 5842 5845 5847 5848 5850 5851 5852 5853 5854 5854 5854 5854 5855 5855 5855 5855 5855 5855 5855 5856 5856 5855 5855 5857 5857 5858 5859 5860 5861 5861 5863 5864 5864 5865 5867 5868 5869 5870 5872 5873
5821 5824 5826 5827 5829 5831 5835 5835 5837 5839 5841 5843 5844 5845 5846 5847 5848 5848 5848 5849 5849 5849 5849 5849 5849 5849 5849 5849 5849 5850 5849 5849 5850 5851 5852 5853 5854 5854 5855 5856 5857 5858 5859 5861 5862 5863 5864 5865 5867
5819 5821 5823 5824 5826 5828 5831 5832 5833 5835 5837 5838 5839 5840 5841 5842 5842 5842 5843 5843 5843 5843 5843 5843 5843 5842 5842 5842 5843 5843 5843 5843 5843 5844 5845 5846 5847 5848 5848 5849 5850 5851 5853 5854 5855 5856 5857 5859 5860
5816 5818 5820 5822 5823 5826 5827 5829 5830 5831 5833 5834 5835 5835 5836 5836 5836 5837 5837 5837 5837 5836 5836 5836 5836 5836 5836 5836 5836 5836 5836 5836 5836 5837 5837 5838 5839 5841 5842 5843 5844 5845 5846 5847 5848 5849 5850 5852 5854
5813 5816 5817 5819 5820 5823 5824 5825 5826 5827 5828 5829 5830 5830 5831 5831 5831 5831 5831 5830 5830 5830 5830 5829 5829 5829 5829 5829 5829 5829 5829 5829 5829 5830 5830 5831 5832 5833 5834 5835 5837 5838 5839 5840 5842 5843 5844 5846 5847
5811 5813 5815 5817 5818 5819 5822 5823 5823 5824 5824 5825 5825 5826 5826 5825 5825 5825 5824 5824 5823 5823 5823 5823 5822 5822 5822 5822 5822 5822 5822 5822 5822 5822 5822 5823 5824 5825 5826 5827 5829 5830 5831 5832 5834 5836 5837 5839 5841
5809 5810 5812 5814 5816 5818 5819 5822 5820 5819 5820 5820 5820 5820 5820 5820 5819 5818 5817 5817 5816 5816 5815 5815 5815 5814 5814 5814 5814 5814 5814 5814 5814 5814 5814 5815 5816 5817 5818 5820 5821 5823 5824 5825 5827 5829 5830 5832 5834
5806 5808 5810 5811 5813 5815 5816 5818 5819 5815 5815 5815 5815 5815 5814 5814 5813 5811 5810 5810 5809 5809 5808 5808 5807 5807 5807 5807 5807 5807 5807 5807 5807 5807 5807 5807 5808 5809 5810 5812 5813 5814 5816 5818 5820 5821 5823 5825 5827
5803 5806 5807 5809 5811 5813 5813 5814 5816 5812 5811 5810 5810 5809 5809 5808 5806 5805 5804 5803 5802 5802 5801 5800 5800 5800 5800 5800 5800 5800 5799 5799 5799 5799 5800 5800 5801 5802 5803 5804 5805 5807 5808 5810 5812 5814 5815 5817 5820
5801 5805 5808 5809 5810 5811 5809 5809 5810 5807 5806 5806 5805 5804 5803 5802 5800 5799 5798 5796 5796 5795 5794 5793 5793 5792 5792 5792 5792 5792 5792 5792 5792 5792 5792 5792 5793 5794 5795 5796 5798 5799 5801 5803 5805 5806 5808 5810 5812
5799 5802 5806 5808 5808 5808 5804 5804 5805 5803 5802 5801 5800 5799 5798 5796 5794 5793 5791 5790 5789 5788 5787 5786 5786 5785 5784 5784 5784 5784 5784 5784 5784 5784 5785 5785 5786 5787 5788 5789 5790 5792 5794 5795 5797 5800 5802 5803 5806
5797 5799 5800 5802 5802 5803 5803 5801 5799 5798 5797 5796 5795 5794 5792 5791 5789 5787 5785 5784 5782 5781 5780 5779 5778 5777 5777 5776 5776 5776 5776 5776 5776 5777 5777 5778 5778 5779 5781 5782 5783 5785 5787 5788 5790 5792 5794 5796 5799
5794 5795 5796 5798 5799 5800 5800 5798 5797 5794 5793 5792 5790 5789 5787 5785 5783 5781 5779 5778 5776 5774 5773 5772 5771 5770 5768 5768 5768 5768 5768 5769 5769 5769 5769 5770 5772 5773 5774 5775 5778 5779 5781 5782 5784 5786 5787 5789 5792
5791 5792 5793 5794 5795 5796 5796 5797 5791 5790 5788 5787 5785 5783 5781 5779 5777 5775 5773 5771 5769 5768 5766 5764 5763 5762 5761 5760 5760 5761 5761 5761 5761 5762 5763 5764 5765 5766 5768 5769 5771 5773 5775 5776 5777 5779 5781 5783 5785
5788 5789 5789 5791 5791 5790 5791 5792 5786 5785 5783 5781 5779 5777 5775 5773 5771 5768 5766 5764 5762 5760 5759 5758 5756 5755 5754 5753 5753 5753 5754 5754 5754 5755 5756 5757 5759 5761 5762 5764 5766 5767 5769 5770 5772 5773 5775 5777 5779